DLH761 VIDP-EDDF

Flight info

Callsign DLH761
Flight time N/A
Altitude 34000
Route DUDUM7G DUDUM Q2 NIKOT R462 UUD J61 LAXOM L639 ISLIL/N0506F360 L639 RASKI N881 KIPOL L444 TOLDA M628 PEKEM DCT MEDPO DCT SITUK DCT RESAL DCT KSA M321 IVONU Z710 GAS G662 DAROP/N0498F380 G662 NIMAR L550 NOVPA N697 MENLI L677 CVO L617 NOZ L551 ANTAR UN133 KPC UN137 TIPAS UL53 AKORO UL617 MAKED DCT LONTA/N0495F400 UL608 DOLEV DCT GUBOK DCT TISKO DCT SIMBA DCT AKINI T161 DEBHI SPESA5C
Aircraft B789/H-SDE1E2E3FGHIJ2J3J4J5M1RWXY/LB1D1

Departure

Time 2026-04-30 21:59
Airport Indira Gandhi International Airport (VIDP)

Arrival

Time N/A
Airport Frankfurt Main Airport (EDDF)
Time Latitude Longitude Altitude Speed Heading
2026-04-30 21:02 28.55946 77.08187 756 ft 0 kts 62°
2026-04-30 21:39 28.55935 77.08163 750 ft 4 kts 62°
2026-04-30 21:39 28.55924 77.08139 750 ft 4 kts 71°
2026-04-30 21:40 28.55923 77.08113 750 ft 4 kts 130°
2026-04-30 21:40 28.55944 77.08096 750 ft 4 kts 151°
2026-04-30 21:40 28.55953 77.08090 750 ft 1 kts 149°
2026-04-30 21:44 28.55950 77.08092 750 ft 1 kts 149°
2026-04-30 21:44 28.55942 77.08097 750 ft 2 kts 149°
2026-04-30 21:44 28.55928 77.08107 750 ft 3 kts 149°
2026-04-30 21:45 28.55908 77.08120 751 ft 4 kts 149°
2026-04-30 21:45 28.55877 77.08141 751 ft 6 kts 149°
2026-04-30 21:45 28.55833 77.08162 751 ft 7 kts 166°
2026-04-30 21:45 28.55779 77.08158 751 ft 8 kts 194°
2026-04-30 21:46 28.55724 77.08127 754 ft 9 kts 224°
2026-04-30 21:46 28.55684 77.08062 754 ft 11 kts 241°
2026-04-30 21:46 28.55647 77.07988 751 ft 10 kts 239°
2026-04-30 21:46 28.55627 77.07924 752 ft 9 kts 264°
2026-04-30 21:47 28.55596 77.07861 753 ft 10 kts 216°
2026-04-30 21:47 28.55532 77.07835 752 ft 10 kts 195°
2026-04-30 21:47 28.55458 77.07813 751 ft 12 kts 193°
2026-04-30 21:47 28.55374 77.07789 753 ft 13 kts 194°
2026-04-30 21:48 28.55298 77.07766 754 ft 8 kts 202°
2026-04-30 21:48 28.55278 77.07722 752 ft 6 kts 272°
2026-04-30 21:48 28.55282 77.07685 753 ft 3 kts 256°
2026-04-30 21:48 28.55271 77.07666 751 ft 3 kts 222°
2026-04-30 21:49 28.55253 77.07656 755 ft 4 kts 202°
2026-04-30 21:49 28.55224 77.07645 752 ft 5 kts 195°
2026-04-30 21:49 28.55183 77.07633 754 ft 7 kts 195°
2026-04-30 21:49 28.55131 77.07617 752 ft 8 kts 193°
2026-04-30 21:50 28.55087 77.07585 753 ft 6 kts 251°
2026-04-30 21:50 28.55089 77.07556 755 ft 6 kts 281°
2026-04-30 21:50 28.55102 77.07499 755 ft 9 kts 285°
2026-04-30 21:50 28.55119 77.07426 753 ft 11 kts 285°
2026-04-30 21:51 28.55139 77.07336 753 ft 13 kts 284°
2026-04-30 21:51 28.55163 77.07232 755 ft 15 kts 284°
2026-04-30 21:51 28.55190 77.07115 753 ft 13 kts 284°
2026-04-30 21:51 28.55206 77.07045 756 ft 6 kts 283°
2026-04-30 21:52 28.55197 77.06995 752 ft 6 kts 235°
2026-04-30 21:52 28.55155 77.06969 751 ft 8 kts 198°
2026-04-30 21:52 28.55095 77.06950 753 ft 10 kts 194°
2026-04-30 21:52 28.55033 77.06931 750 ft 8 kts 204°
2026-04-30 21:53 28.55019 77.06912 749 ft 1 kts 247°
2026-04-30 21:53 28.55015 77.06904 749 ft 2 kts 240°
2026-04-30 21:53 28.55011 77.06900 754 ft 1 kts 226°
2026-04-30 21:53 28.55008 77.06897 754 ft 0 kts 213°
2026-04-30 21:54 28.55005 77.06896 754 ft 1 kts 209°
2026-04-30 21:54 28.55002 77.06895 754 ft 1 kts 205°
2026-04-30 21:54 28.54995 77.06893 750 ft 1 kts 193°
2026-04-30 21:54 28.54992 77.06893 751 ft 1 kts 185°
2026-04-30 21:55 28.54987 77.06893 750 ft 0 kts 178°
2026-04-30 21:55 28.54985 77.06893 751 ft 1 kts 176°
2026-04-30 21:55 28.54981 77.06894 750 ft 0 kts 163°
2026-04-30 21:55 28.54974 77.06898 752 ft 2 kts 150°
2026-04-30 21:56 28.54969 77.06905 751 ft 0 kts 124°
2026-04-30 21:56 28.54968 77.06908 753 ft 0 kts 112°
2026-04-30 21:56 28.54965 77.06919 753 ft 3 kts 109°
2026-04-30 21:56 28.54963 77.06936 752 ft 1 kts 84°
2026-04-30 21:57 28.54965 77.06956 753 ft 5 kts 81°
2026-04-30 21:57 28.54971 77.07006 751 ft 7 kts 91°
2026-04-30 21:57 28.54960 77.07070 753 ft 0 kts 104°
2026-04-30 21:58 28.54923 77.07241 753 ft 55 kts 103°
2026-04-30 21:58 28.54774 77.07923 756 ft 122 kts 104°
2026-04-30 21:58 28.54529 77.09074 757 ft 179 kts 103°
2026-04-30 21:58 28.54193 77.10627 941 ft 211 kts 99°
2026-04-30 21:59 28.53988 77.12150 2138 ft 188 kts 99°
2026-04-30 21:59 28.53780 77.13707 2433 ft 216 kts 113°
2026-04-30 21:59 28.52683 77.15022 2474 ft 249 kts 160°
2026-04-30 22:00 28.49359 77.14247 4126 ft 260 kts 211°
2026-04-30 22:00 28.45979 77.12452 5766 ft 278 kts 197°
2026-04-30 22:00 28.44087 77.12010 6544 ft 285 kts 190°
2026-04-30 22:01 28.42086 77.11672 7071 ft 299 kts 191°
2026-04-30 22:01 28.40015 77.11231 7002 ft 299 kts 194°
2026-04-30 22:01 28.38008 77.10743 6994 ft 292 kts 194°
2026-04-30 22:01 28.36016 77.10278 6886 ft 293 kts 193°
2026-04-30 22:02 28.34026 77.09836 6757 ft 290 kts 193°
2026-04-30 22:02 28.32054 77.09338 6740 ft 290 kts 204°
2026-04-30 22:02 28.30391 77.08091 6909 ft 289 kts 226°
2026-04-30 22:02 28.28940 77.06543 7872 ft 284 kts 229°
2026-04-30 22:03 28.27544 77.04943 8726 ft 287 kts 231°
2026-04-30 22:03 28.26131 77.03332 9592 ft 289 kts 231°
2026-04-30 22:03 28.24672 77.01707 10128 ft 304 kts 231°
2026-04-30 22:03 28.23093 76.99947 10273 ft 331 kts 230°
2026-04-30 22:04 28.21401 76.98061 10401 ft 357 kts 230°
2026-04-30 22:04 28.19569 76.96026 10698 ft 374 kts 230°
2026-04-30 22:04 28.15817 76.91863 12122 ft 382 kts 230°
2026-04-30 22:05 28.13914 76.89742 12853 ft 386 kts 230°
2026-04-30 22:05 28.11984 76.87596 13553 ft 391 kts 230°
2026-04-30 22:05 28.10028 76.85426 14197 ft 394 kts 230°
2026-04-30 22:05 28.08056 76.83238 14842 ft 398 kts 230°
2026-04-30 22:06 28.06092 76.81057 15494 ft 401 kts 230°
2026-04-30 22:06 28.02057 76.76584 16733 ft 409 kts 230°
2026-04-30 22:06 28.00011 76.74319 17355 ft 412 kts 230°
2026-04-30 22:07 27.97953 76.72040 17953 ft 415 kts 230°
2026-04-30 22:07 27.95875 76.69740 18488 ft 418 kts 230°
2026-04-30 22:07 27.93816 76.67464 19013 ft 421 kts 230°
2026-04-30 22:07 27.91709 76.65135 19543 ft 424 kts 230°
2026-04-30 22:08 27.89595 76.62800 20055 ft 426 kts 230°
2026-04-30 22:08 27.87464 76.60448 20578 ft 429 kts 230°
2026-04-30 22:08 27.85322 76.58085 21060 ft 432 kts 230°
2026-04-30 22:08 27.83153 76.55693 21536 ft 435 kts 230°
2026-04-30 22:09 27.80978 76.53299 22022 ft 438 kts 229°
2026-04-30 22:09 27.78593 76.51166 22422 ft 448 kts 219°
2026-04-30 22:09 27.75987 76.49193 22832 ft 451 kts 220°
2026-04-30 22:09 27.73360 76.47216 23274 ft 454 kts 220°
2026-04-30 22:10 27.70726 76.45240 23609 ft 456 kts 220°
2026-04-30 22:10 27.68074 76.43243 23905 ft 459 kts 220°
2026-04-30 22:10 27.65414 76.41237 24224 ft 462 kts 220°
2026-04-30 22:10 27.62726 76.39215 24498 ft 466 kts 220°
2026-04-30 22:11 27.57336 76.35169 25147 ft 470 kts 221°
2026-04-30 22:11 27.54608 76.33119 25429 ft 472 kts 221°
2026-04-30 22:11 27.51857 76.31075 25701 ft 476 kts 218°
2026-04-30 22:12 27.49011 76.29145 25947 ft 479 kts 219°
2026-04-30 22:12 27.46158 76.27176 26375 ft 477 kts 219°
2026-04-30 22:12 27.43319 76.25212 26524 ft 483 kts 219°
2026-04-30 22:12 27.40434 76.23235 26780 ft 486 kts 219°
2026-04-30 22:13 27.37535 76.21257 27003 ft 489 kts 219°
2026-04-30 22:13 27.34629 76.19267 27287 ft 490 kts 219°
2026-04-30 22:13 27.31712 76.17265 27534 ft 492 kts 219°
2026-04-30 22:13 27.28786 76.15261 27778 ft 494 kts 219°
2026-04-30 22:14 27.25850 76.13256 28091 ft 492 kts 219°
2026-04-30 22:14 27.22944 76.11273 28208 ft 496 kts 219°
2026-04-30 22:14 27.19986 76.09246 28354 ft 499 kts 219°
2026-04-30 22:14 27.17010 76.07215 28562 ft 501 kts 219°
2026-04-30 22:15 27.14016 76.05176 28772 ft 503 kts 219°
2026-04-30 22:15 27.11020 76.03135 28983 ft 505 kts 219°
2026-04-30 22:15 27.08005 76.01079 29152 ft 507 kts 219°
2026-04-30 22:15 27.04981 75.99019 29422 ft 506 kts 219°
2026-04-30 22:16 27.02014 75.97004 29686 ft 506 kts 219°
2026-04-30 22:16 26.99000 75.94953 29857 ft 507 kts 219°
2026-04-30 22:17 26.89911 75.88781 30326 ft 510 kts 218°
2026-04-30 22:17 26.86870 75.86718 30476 ft 511 kts 218°
2026-04-30 22:17 26.80550 75.82945 30746 ft 524 kts 208°
2026-04-30 22:18 26.77141 75.81482 30857 ft 525 kts 208°
2026-04-30 22:18 26.70286 75.78597 31209 ft 525 kts 207°
2026-04-30 22:19 26.63493 75.75707 31758 ft 520 kts 207°
2026-04-30 22:19 26.60105 75.74271 31950 ft 520 kts 207°
2026-04-30 22:19 26.53381 75.71433 32386 ft 519 kts 207°
2026-04-30 22:20 26.50004 75.70003 32594 ft 518 kts 207°
2026-04-30 22:20 26.43266 75.67158 33004 ft 517 kts 207°
2026-04-30 22:20 26.39888 75.65733 33051 ft 521 kts 207°
2026-04-30 22:21 26.36492 75.64300 33260 ft 520 kts 207°
2026-04-30 22:21 26.33103 75.62874 33453 ft 520 kts 207°
2026-04-30 22:21 26.29725 75.61452 33696 ft 519 kts 207°
2026-04-30 22:21 26.26351 75.60031 33881 ft 518 kts 207°
2026-04-30 22:22 26.22972 75.58609 34051 ft 518 kts 207°
2026-04-30 22:22 26.19649 75.57213 34214 ft 518 kts 207°
2026-04-30 22:22 26.16271 75.55794 34376 ft 518 kts 207°
2026-04-30 22:22 26.12896 75.54378 34537 ft 518 kts 207°
2026-04-30 22:23 26.06120 75.51535 34759 ft 520 kts 207°
2026-04-30 22:23 26.02731 75.50117 34942 ft 520 kts 207°
2026-04-30 22:23 25.99346 75.48700 35102 ft 519 kts 207°
2026-04-30 22:24 25.95961 75.47283 35274 ft 518 kts 207°
2026-04-30 22:24 25.92592 75.45862 35440 ft 517 kts 210°
2026-04-30 22:24 25.89426 75.44071 35628 ft 506 kts 219°
2026-04-30 22:24 25.86639 75.41822 35729 ft 497 kts 229°
2026-04-30 22:25 25.84213 75.39161 36071 ft 484 kts 234°
2026-04-30 22:25 25.81955 75.36376 36198 ft 485 kts 234°
2026-04-30 22:25 25.79699 75.33587 36348 ft 484 kts 234°
2026-04-30 22:25 25.77458 75.30807 36530 ft 483 kts 234°
2026-04-30 22:26 25.72966 75.25253 36871 ft 482 kts 234°
2026-04-30 22:26 25.70723 75.22487 37024 ft 482 kts 234°
2026-04-30 22:26 25.68516 75.19761 37187 ft 481 kts 234°
2026-04-30 22:27 25.66273 75.16992 37338 ft 481 kts 234°
2026-04-30 22:27 25.64038 75.14237 37487 ft 480 kts 234°
2026-04-30 22:27 25.59573 75.08739 37762 ft 479 kts 234°
2026-04-30 22:28 25.52834 75.00453 37738 ft 483 kts 234°
2026-04-30 22:29 25.43898 74.89485 37736 ft 482 kts 233°
2026-04-30 22:31 25.28097 74.70160 37734 ft 484 kts 233°
2026-04-30 22:32 25.16821 74.56418 37720 ft 483 kts 233°
2026-04-30 22:33 25.05550 74.42695 37711 ft 481 kts 233°
2026-04-30 22:35 24.94327 74.29064 37710 ft 479 kts 233°
2026-04-30 22:36 24.83147 74.15522 37709 ft 479 kts 233°
2026-04-30 22:37 24.74124 74.04621 37716 ft 483 kts 233°
2026-04-30 22:38 24.65818 73.94612 37727 ft 485 kts 232°
2026-04-30 22:39 24.59533 73.86003 37741 ft 477 kts 242°
2026-04-30 22:40 24.48945 73.67539 37752 ft 476 kts 243°
2026-04-30 22:41 24.40136 73.52233 37752 ft 473 kts 242°
2026-04-30 22:43 24.29591 73.33979 37757 ft 473 kts 242°
2026-04-30 22:44 24.22565 73.21856 37758 ft 471 kts 242°
2026-04-30 22:45 24.11974 73.03634 37754 ft 472 kts 242°
2026-04-30 22:47 24.01390 72.85492 37748 ft 472 kts 241°
2026-04-30 22:48 23.94305 72.73386 37758 ft 473 kts 241°
2026-04-30 22:49 23.83640 72.55215 37747 ft 472 kts 240°
2026-04-30 22:51 23.73009 72.37169 37738 ft 471 kts 240°
2026-04-30 22:52 23.67706 72.28191 37733 ft 470 kts 240°
2026-04-30 22:53 23.60593 72.16175 37737 ft 472 kts 240°
2026-04-30 22:53 23.55234 72.07140 37746 ft 473 kts 240°
2026-04-30 22:55 23.46301 71.92116 37742 ft 473 kts 240°
2026-04-30 22:56 23.39142 71.80107 37737 ft 472 kts 240°
2026-04-30 22:57 23.30226 71.65192 37727 ft 470 kts 240°
2026-04-30 22:58 23.23058 71.53230 37737 ft 474 kts 239°
2026-04-30 22:59 23.12258 71.35262 37742 ft 473 kts 239°
2026-05-01 07:23 47.73735 13.99908 42391 ft 478 kts 311°
2026-05-01 07:24 47.79764 13.88068 42410 ft 479 kts 310°
2026-05-01 07:24 47.83788 13.80137 42407 ft 480 kts 311°
2026-05-01 07:25 47.87807 13.72194 42406 ft 481 kts 310°
2026-05-01 07:25 47.91830 13.64218 42399 ft 481 kts 310°
2026-05-01 07:26 47.95839 13.56244 42409 ft 480 kts 310°
2026-05-01 07:26 47.99840 13.48267 42406 ft 480 kts 310°
2026-05-01 07:27 48.03837 13.40272 42402 ft 480 kts 310°
2026-05-01 07:27 48.07824 13.32276 42406 ft 480 kts 310°
2026-05-01 07:28 48.11800 13.24275 42409 ft 478 kts 310°
2026-05-01 07:28 48.15760 13.16285 42400 ft 477 kts 310°
2026-05-01 07:29 48.19680 13.08354 42402 ft 477 kts 310°
2026-05-01 07:29 48.23691 13.00427 42427 ft 474 kts 316°
2026-05-01 07:30 48.28092 12.93012 42420 ft 476 kts 315°
2026-05-01 07:30 48.32489 12.85544 42415 ft 478 kts 315°
2026-05-01 07:31 48.36906 12.78044 42418 ft 479 kts 315°
2026-05-01 07:32 48.47867 12.59312 42416 ft 476 kts 315°
2026-05-01 07:33 48.54422 12.48048 42412 ft 476 kts 314°
2026-05-01 07:33 48.60943 12.36795 42419 ft 476 kts 314°
2026-05-01 07:34 48.67476 12.25472 42387 ft 476 kts 314°
2026-05-01 07:35 48.71818 12.17913 42412 ft 476 kts 312°
2026-05-01 07:35 48.73708 12.13771 42443 ft 481 kts 301°
2026-05-01 07:35 48.75077 12.09129 42436 ft 486 kts 290°
2026-05-01 07:36 48.76448 11.98988 42422 ft 492 kts 282°
2026-05-01 07:36 48.77524 11.88758 42413 ft 490 kts 282°
2026-05-01 07:37 48.79158 11.73508 42398 ft 487 kts 282°
2026-05-01 07:37 48.80220 11.63378 42400 ft 486 kts 282°
2026-05-01 07:38 48.81270 11.53308 42399 ft 486 kts 282°
2026-05-01 07:39 48.82831 11.38094 42393 ft 486 kts 281°
2026-05-01 07:39 48.83346 11.33042 41967 ft 484 kts 281°
2026-05-01 07:39 48.85206 11.23352 40756 ft 474 kts 301°
2026-05-01 07:40 48.86924 11.19149 40177 ft 468 kts 312°
2026-05-01 07:40 48.89104 11.15506 39594 ft 461 kts 322°
2026-05-01 07:40 48.91463 11.12197 38967 ft 462 kts 321°
2026-05-01 07:40 48.93834 11.08891 38317 ft 461 kts 322°
2026-05-01 07:41 48.96197 11.05610 37711 ft 460 kts 322°
2026-05-01 07:41 48.98556 11.02315 37071 ft 461 kts 321°
2026-05-01 07:41 49.03285 10.95659 35769 ft 464 kts 321°
2026-05-01 07:42 49.05656 10.92330 35080 ft 465 kts 321°
2026-05-01 07:42 49.08038 10.88980 34342 ft 465 kts 321°
2026-05-01 07:42 49.10409 10.85634 33588 ft 464 kts 321°
2026-05-01 07:42 49.12777 10.82283 32829 ft 465 kts 321°
2026-05-01 07:43 49.15159 10.78911 32053 ft 469 kts 321°
2026-05-01 07:43 49.17567 10.75501 31221 ft 473 kts 320°
2026-05-01 07:43 49.22284 10.68365 29392 ft 477 kts 317°
2026-05-01 07:44 49.26847 10.61230 27712 ft 468 kts 317°
2026-05-01 07:44 49.31339 10.54119 26052 ft 461 kts 316°
2026-05-01 07:45 49.33562 10.50601 25240 ft 458 kts 316°
2026-05-01 07:45 49.35762 10.47087 24495 ft 454 kts 314°
2026-05-01 07:45 49.37618 10.43225 24097 ft 445 kts 307°
2026-05-01 07:45 49.39402 10.39354 23694 ft 444 kts 308°
2026-05-01 07:46 49.41196 10.35453 23305 ft 448 kts 307°
2026-05-01 07:46 49.42977 10.31531 22932 ft 447 kts 307°
2026-05-01 07:46 49.46499 10.23774 22183 ft 444 kts 307°
2026-05-01 07:47 49.48290 10.19837 21817 ft 443 kts 307°
2026-05-01 07:47 49.50027 10.16005 21453 ft 442 kts 307°
2026-05-01 07:47 49.51777 10.12133 21088 ft 440 kts 307°
2026-05-01 07:47 49.53522 10.08270 20718 ft 439 kts 307°
2026-05-01 07:48 49.56995 10.00572 20006 ft 436 kts 307°
2026-05-01 07:48 49.58722 9.96736 19652 ft 435 kts 307°
2026-05-01 07:48 49.60442 9.92906 19291 ft 434 kts 307°
2026-05-01 07:49 49.62159 9.89079 18926 ft 433 kts 307°
2026-05-01 07:49 49.65575 9.81448 18187 ft 430 kts 307°
2026-05-01 07:49 49.67263 9.77668 17832 ft 427 kts 307°
2026-05-01 07:50 49.68943 9.73901 17497 ft 425 kts 307°
2026-05-01 07:50 49.72279 9.66408 16796 ft 421 kts 307°
2026-05-01 07:50 49.73933 9.62682 16451 ft 420 kts 307°
2026-05-01 07:51 49.75583 9.58962 16098 ft 417 kts 307°
2026-05-01 07:51 49.77221 9.55262 15760 ft 416 kts 306°
2026-05-01 07:51 49.78849 9.51581 15418 ft 414 kts 306°
2026-05-01 07:52 49.82094 9.44226 14740 ft 412 kts 306°
2026-05-01 07:52 49.83684 9.40616 14406 ft 410 kts 306°
2026-05-01 07:52 49.85284 9.36973 14045 ft 408 kts 305°
2026-05-01 07:53 49.87399 9.28835 13359 ft 405 kts 288°
2026-05-01 07:53 49.88189 9.24657 13033 ft 403 kts 287°
2026-05-01 07:53 49.88955 9.20547 12701 ft 401 kts 287°
2026-05-01 07:53 49.89746 9.16407 12361 ft 399 kts 287°
2026-05-01 07:54 49.91316 9.08205 11714 ft 395 kts 287°
2026-05-01 07:55 49.93537 8.96518 11328 ft 344 kts 287°
2026-05-01 07:55 49.94819 8.89799 11242 ft 307 kts 287°
2026-05-01 07:56 49.96521 8.80822 11221 ft 260 kts 287°
2026-05-01 07:56 49.97484 8.75724 11172 ft 239 kts 287°
2026-05-01 07:57 49.97946 8.73259 11142 ft 237 kts 285°
2026-05-01 07:57 49.97448 8.68365 11044 ft 234 kts 247°
2026-05-01 07:58 49.96312 8.63645 11043 ft 232 kts 247°
2026-05-01 07:58 49.95254 8.59233 11034 ft 202 kts 246°
2026-05-01 07:59 49.94301 8.55283 10995 ft 192 kts 246°
2026-05-01 07:59 49.93333 8.51289 10988 ft 203 kts 246°
2026-05-01 08:00 49.91329 8.42976 10992 ft 207 kts 246°
2026-05-01 08:01 49.89816 8.36711 10844 ft 206 kts 246°
2026-05-01 08:01 49.89311 8.34627 10736 ft 206 kts 246°
2026-05-01 08:01 49.88810 8.32558 10610 ft 204 kts 246°
2026-05-01 08:02 49.87814 8.28454 10348 ft 202 kts 246°
2026-05-01 08:02 49.87318 8.26415 10218 ft 202 kts 246°
2026-05-01 08:03 49.86331 8.22361 9937 ft 200 kts 246°
2026-05-01 08:03 49.85841 8.20346 9790 ft 200 kts 246°
2026-05-01 08:03 49.84867 8.16349 9518 ft 195 kts 246°
2026-05-01 08:04 49.83914 8.12450 9263 ft 194 kts 246°
2026-05-01 08:04 49.82959 8.08541 9006 ft 194 kts 246°
2026-05-01 08:05 49.82003 8.04635 8755 ft 194 kts 245°
2026-05-01 08:05 49.81524 8.02684 8616 ft 193 kts 245°
2026-05-01 08:05 49.81047 8.00739 8501 ft 193 kts 245°
2026-05-01 08:06 49.80091 7.96854 8235 ft 193 kts 245°
2026-05-01 08:06 49.79189 7.92999 8007 ft 184 kts 255°
2026-05-01 08:07 49.80564 7.89888 7762 ft 190 kts 342°
2026-05-01 08:07 49.83062 7.88841 7782 ft 181 kts 347°
2026-05-01 08:08 49.84289 7.88250 7793 ft 189 kts 346°
2026-05-01 08:08 49.86338 7.88140 7658 ft 168 kts 33°
2026-05-01 08:09 49.87578 7.91044 7595 ft 166 kts 73°
2026-05-01 08:09 49.87992 7.92734 7638 ft 169 kts 73°
2026-05-01 08:09 49.88414 7.94440 7655 ft 169 kts 72°
2026-05-01 08:10 49.89252 7.97845 7674 ft 169 kts 73°
2026-05-01 08:10 49.90092 8.01274 7596 ft 174 kts 72°
2026-05-01 08:11 49.91083 8.04591 7140 ft 161 kts 81°
2026-05-01 08:11 49.91835 8.07694 6725 ft 148 kts 75°
2026-05-01 08:12 49.92533 8.10612 6347 ft 147 kts 75°
2026-05-01 08:12 49.92890 8.12108 6160 ft 146 kts 75°
2026-05-01 08:12 49.93589 8.15023 5768 ft 143 kts 76°
2026-05-01 08:13 49.93934 8.16470 5585 ft 143 kts 76°
2026-05-01 08:13 49.94277 8.17908 5397 ft 140 kts 76°
2026-05-01 08:13 49.94961 8.20762 5019 ft 140 kts 77°
2026-05-01 08:14 49.95297 8.22180 4847 ft 142 kts 78°
2026-05-01 08:14 49.95640 8.23603 4663 ft 139 kts 77°
2026-05-01 08:14 49.95976 8.25018 4474 ft 140 kts 78°
2026-05-01 08:14 49.96308 8.26403 4386 ft 133 kts 78°
2026-05-01 08:15 49.96630 8.27755 4382 ft 135 kts 78°
2026-05-01 08:15 49.97303 8.30541 4405 ft 138 kts 77°
2026-05-01 08:15 49.97629 8.31902 4098 ft 137 kts 78°
2026-05-01 08:16 49.97962 8.33303 3695 ft 138 kts 78°
2026-05-01 08:16 49.98288 8.34662 3358 ft 135 kts 79°
2026-05-01 08:16 49.98617 8.36045 2986 ft 132 kts 79°
2026-05-01 08:16 49.98923 8.37326 2857 ft 130 kts 79°
2026-05-01 08:17 49.99244 8.38681 2683 ft 134 kts 79°
2026-05-01 08:17 49.99565 8.40038 2509 ft 133 kts 78°
2026-05-01 08:17 49.99883 8.41378 2341 ft 133 kts 77°
2026-05-01 08:17 50.00215 8.42742 2161 ft 135 kts 76°
2026-05-01 08:18 50.00530 8.44067 2017 ft 131 kts 76°